Weather History for Capri, Italy

Change the Weather History Date:

Wednesday, February 26, 2014

  Actual Average Record
Temperature  
Mean Temperature 56 °F -  
Max Temperature 64 °F - - ()
Min Temperature 48 °F - - ()
Degree Days  
Heating Degree Days 9    
Growing Degree Days 6 (Base 50)    
Moisture  
Dew Point 49 °F    
Average Humidity 84    
Maximum Humidity 100    
Minimum Humidity 56    
Precipitation  
Precipitation 0.00 in - - ()
Sea Level Pressure  
Sea Level Pressure 30.19 in    
Wind  
Wind Speed 1 mph ()    
Max Wind Speed 5 mph    
Max Gust Speed -    
Visibility 11.2 miles    
Events      
T = Trace of Precipitation, MM = Missing Value Source: Averaged Metar Reports

Daily Weather History Graph

Daily Weather History Graph

Search for Another Location

Airport:

Trip Planner

Search our weather history database for the weather conditions in past years. The results will help you decide how hot, cold, wet, or windy it might be!

Date:

Astronomy

Feb. 26, 2014 Rise Set
Actual Time 6:41 AM CET 5:50 PM CET
Civil Twilight 6:14 AM CET 6:18 PM CET
Nautical Twilight 5:42 AM CET 6:50 PM CET
Astronomical Twilight 5:11 AM CET 7:21 PM CET
Moon 4:14 AM CET (2/26) 2:44 PM CET (2/26)
Length of Visible Light 12h 04m
Length of Day
11h 09m
Waning Crescent, 12% of the Moon is Illuminated
Feb 26
Waning Crescent
Mar 1
New
Mar 8
First Quarter
Mar 16
Full
Mar 24
Last Quarter

Hourly Weather History & Observations

Time (CET) Temp. Dew Point Humidity Pressure Visibility Wind Dir Wind Speed Gust Speed Precip Events Conditions
12:55 AM 50.0 °F 48.2 °F 94% 30.15 in - North - - N/A   Clear
1:00 AM 50 °F 48 °F 89% 30.18 in 12 mi Calm Calm - -   Clear
1:55 AM 50.0 °F 48.2 °F 94% 30.15 in - North - - N/A   Clear
2:55 AM 50.0 °F 44.6 °F 82% 30.15 in - North - - N/A   Clear
3:55 AM 50.0 °F 48.2 °F 94% 30.15 in - North - - N/A   Clear
4:00 AM 50 °F 49 °F 95% 30.17 in 12 mi Calm Calm - -  
4:55 AM 50.0 °F 48.2 °F 94% 30.15 in - North - - N/A   Clear
5:55 AM 50.0 °F 46.4 °F 87% 30.15 in - North - - N/A   Clear
6:55 AM 51.8 °F 48.2 °F 88% 30.15 in - North - - N/A   Scattered Clouds
7:00 AM 51 °F 49 °F 88% 30.17 in 6 mi 2.3 mph - -   Mostly Cloudy
7:55 AM 51.8 °F 48.2 °F 88% 30.15 in - North - - N/A   Scattered Clouds
8:55 AM 51.8 °F 48.2 °F 88% 30.18 in - North - - N/A   Scattered Clouds
9:55 AM 53.6 °F 46.4 °F 77% 30.18 in - North - - N/A   Partly Cloudy
10:00 AM 54 °F 47 °F 70% 30.19 in 12 mi 1.2 mph - -   Partly Cloudy
10:55 AM 55.4 °F 48.2 °F 77% 30.18 in - North - - N/A   Partly Cloudy
11:55 AM 57.2 °F 50.0 °F 77% 30.21 in - North - - N/A   Clear
12:55 PM 57.2 °F 46.4 °F 67% 30.21 in - North - - N/A   Clear
1:00 PM 58 °F 47 °F 56% 30.23 in 12 mi 4.6 mph - -   Partly Cloudy
1:55 PM 59.0 °F 46.4 °F 63% 30.21 in - North - - N/A   Clear
2:55 PM 60.8 °F 48.2 °F 63% 30.21 in - North - - N/A   Scattered Clouds
3:55 PM 57.2 °F 50.0 °F 77% 30.21 in - North - - N/A   Mostly Cloudy
4:00 PM 58 °F 50 °F 66% 30.22 in 12 mi 2.3 mph - -   Mostly Cloudy
4:55 PM 55.4 °F 50.0 °F 82% 30.21 in - North - - N/A   Mostly Cloudy
5:55 PM 55.4 °F 50.0 °F 82% 30.21 in - North - - N/A   Mostly Cloudy
6:55 PM 53.6 °F 50.0 °F 88% 30.21 in - North - - N/A   Mostly Cloudy
7:00 PM 54 °F 51 °F 86% 30.22 in 12 mi 2.3 mph - -   Mostly Cloudy
7:55 PM 53.6 °F 51.8 °F 94% 30.21 in - North - - N/A   Clear
8:55 PM 53.6 °F 51.8 °F 94% 30.21 in - North - - N/A   Clear
9:55 PM 53.6 °F 51.8 °F 94% 30.21 in - North - - N/A   Clear
10:00 PM 53 °F 52 °F 95% 30.22 in 12 mi Calm Calm - -   Partly Cloudy
10:55 PM 53.6 °F 53.6 °F 100% 30.21 in - North - - N/A   Clear
11:55 PM 53.6 °F 51.8 °F 94% 30.21 in - North - - N/A   Mostly Cloudy